Location: *
(40.7873°S, 98.7174°E)
Time: 12:17:16
(UTC+00:00)

NOSS 3-4 (C) - Pass Details

Date: 02 October 2022
Orbit: 836 x 1376 km, 63.4° (Epoch: 25 November)

Event Time Altitude Azimuth Distance (km) Brightness Sun altitude
Exits shadow 18:40:13 51° 128° (SE) 1,649 4.7 -41.3°
Drops below altitude 10° 18:45:58 10° 142° (SE) 3,291 6.9 -40.8°
Sets 18:48:41 0° 143° (SE) 4,201 7.7 -40.5°
